Tracking 20942 objects as of 9-Jul-2020
HD Live streaming from Space Station
objects crossing your sky now

GLOBALSTAR M058

Track GLOBALSTAR M058 now!
10-day predictions
GLOBALSTAR M058 is classified as:


NORAD ID: 25907
Int'l Code: 1999-049A
Perigee: 1,717.5 km
Apogee: 1,720.3 km
Inclination: 52.0 °
Period: 120.7 minutes
Semi major axis: 8089 km
RCS: 2.4031 m2 (large)
Launch date: September 22, 1999
Source: Globalstar (GLOB)
Launch site: TYURATAM MISSILE AND SPACE COMPLEX (TTMTR)
aabbcc
Your satellite tracking list
Your tracking list is empty




NASA's NSSDC Master Catalog

Two Line Element Set (TLE):
1 25907U 99049A   20191.50344270 -.00000060  00000-0  33324-3 0  9997
2 25907  51.9921 245.1282 0001728  21.1105 338.9800 11.93131898937457
Source of the keplerian elements: AFSPC